Powrót do katalogu

INTELSAT 503

AktywnyŁącznośćGEO
NORAD 12994·PAYLOAD· XX

Wystrzelony Dec 15, 1981 z Cape Canaveral Space Force Station

Loading…

TLE

ŚwieżeSource: Space-Track

Epoka: Sep 14, 2026, 12:46 UTC

1 12994U 81119A   26257.53206206 -.00000339  00000-0  00000-0 0  9997
2 12994  11.1398 326.5358 0051840 269.4460  90.7394  0.99469580127597

Śledź INTELSAT 503 w czasie rzeczywistym z AllMySat

Download on the App Store